Location: Riverside Cemetery
(38.3047°N, 99.7773°W)
Time: 00:29:15
(UTC+00:00)

FENGYUN 3A - Pass Details

Date: 19 September 2020
Orbit: 824 x 836 km, 98.4° (Epoch: 23 October)

Event Time Altitude Azimuth Distance (km) Brightness Sun altitude
Rises 11:06:10 0° 15° (NNE) 3,371 7.3 -16.0°
Reaches altitude 10° 11:08:33 10° 19° (NNE) 2,435 6.5 -15.6°
Maximum altitude 11:13:55 67° 101° (ESE) 894 4.0 -14.6°
Drops below altitude 10° 11:19:16 10° 185° (S) 2,426 5.9 -13.5°
Sets 11:21:38 0° 187° (S) 3,358 6.6 -13.1°
